Terug naar catalogus

CZ-4 DEB

ActiefSSO
NORAD 20973·DEBRIS·🇨🇳 China

Gelanceerd Sep 3, 1990 vanaf Taiyuan Satellite Launch Center

Loading…

Volgende Passages (komende 24 uur)

TLE

VersSource: Space-Track

Epoch: Sep 14, 2026, 20:55 UTC

1 20973U 90081CF  26257.87160363  .00002829  00000-0  50457-3 0  9990
2 20973  98.1492 313.1532 0031896 257.2991 159.8965 14.67480840883695

Volg CZ-4 DEB in realtime met AllMySat

Download on the App Store